Regional Weather Roundup
Issued by NWS

Home | Current Version | Previous Version | Text Only | Print | Product List | Glossary On
Versions: 1 2 3 4 5 6 7 8 9 10 11 12 13 14 15 16 17 18 19 20 21 22 23 24 25 26 27 28 29 30 31 32 33 34 35 36 37 38 39 40 41 42 43 44 45 46 47 48 49 50
000
ASUS43 KTOP 222359
RWRKS

WEATHER ROUNDUP FOR KANSAS
NATIONAL WEATHER SERVICE GOODLAND KS
600 PM CST WED FEB 22 2017

NOTE:  "FAIR" INDICATES FEW OR NO CLOUDS BELOW 12,000 FEET WITH NO
SIGNIFICANT WEATHER AND/OR OBSTRUCTIONS TO VISIBILITY.

KSZ001>006-013>018-027>032-041>047-230100-
NORTHWEST KANSAS

CITY           SKY/WX    TMP DP  RH WIND       PRES   REMARKS
GOODLAND       CLEAR     60  22  23 E6        29.74S
6HR MIN TEMP:  60; 6HR MAX TEMP:  65;

HAYS             N/A     68  32  26 CALM      29.72R
HILL CITY      CLEAR     67  24  19 NE5       29.72S
6HR MIN TEMP:  67; 6HR MAX TEMP:  74;

RUSSELL        PTCLDY    68  31  25 N3        29.70R
6HR MIN TEMP:  68; 6HR MAX TEMP:  75;

$$

KSZ061>065-074>080-084>089-230100-
SOUTHWEST KANSAS

CITY           SKY/WX    TMP DP  RH WIND       PRES   REMARKS
DODGE CITY     CLEAR     71  24  17 E6        29.71S
6HR MIN TEMP:  70; 6HR MAX TEMP:  77;

ELKHART          N/A     65  24  21 E8          N/A
GARDEN CITY    CLEAR     69  20  15 CALM      29.71F
6HR MIN TEMP:  67; 6HR MAX TEMP:  74;

GREAT BEND     CLEAR     68  33  27 N8        29.71R
LIBERAL        CLEAR     70  21  16 E8        29.71F
$$

KSZ066>073-081>083-090>101-230100-
SOUTHEAST KANSAS

CITY           SKY/WX    TMP DP  RH WIND       PRES   REMARKS
CHANUTE        CLEAR     73  34  23 S10       29.67S
6HR MIN TEMP:  73; 6HR MAX TEMP:  82;

COFFEYVILLE    CLEAR     69  44  40 S7        29.68R
6HR MIN TEMP:  69; 6HR MAX TEMP:  80;

HUTCHINSON     CLEAR     71  29  21 NW5       29.67S
6HR MIN TEMP:  71; 6HR MAX TEMP:  81;

MEDICINE LODGE   N/A     74  28  18 N6        29.68R
NEWTON         CLEAR     71  46  40 SW5       29.69R
PARSONS        CLEAR     73  41  31 S6        29.69R
6HR MIN TEMP:  72; 6HR MAX TEMP:  81;

WICHITA INTL   PTCLDY    69  48  47 S8        29.67S
6HR MIN TEMP:  68; 6HR MAX TEMP:  77;

WICHITA JABRA  CLEAR     69  45  41 S7        29.67S
6HR MIN TEMP:  68; 6HR MAX TEMP:  76;

WINFIELD       CLEAR     64  48  56 SW5       29.69S
6HR MIN TEMP:  64; 6HR MAX TEMP:  77;

$$

KSZ007>012-019>026-033>040-048>060-102>105-230100-
NORTHEAST KANSAS

CITY           SKY/WX    TMP DP  RH WIND       PRES   REMARKS
CONCORDIA      PTCLDY    68  30  24 N5        29.69R
6HR MIN TEMP:  68; 6HR MAX TEMP:  77;

EMPORIA        MOCLDY    70  39  32 SW6       29.66S
6HR MIN TEMP:  70; 6HR MAX TEMP:  80;

LAWRENCE       CLOUDY    68  35  29 W5        29.65R HAZE
6HR MIN TEMP:  67; 6HR MAX TEMP:  82;

MANHATTAN      PTCLDY    64  38  38 CALM      29.65R
6HR MIN TEMP:  64; 6HR MAX TEMP:  80;

OLATHE IND     PTCLDY    69  36  29 W7        29.66R
6HR MIN TEMP:  69; 6HR MAX TEMP:  81;

OLATHE EXE     CLOUDY    72  35  25 W6        29.65R
6HR MIN TEMP:  71; 6HR MAX TEMP:  79;

SALINA         PTCLDY    70  34  26 W8        29.68R
6HR MIN TEMP:  70; 6HR MAX TEMP:  81;

TOPEKA BILLARD CLOUDY    68  40  35 CALM      29.64S
6HR MIN TEMP:  68; 6HR MAX TEMP:  79;

TOPEKA FORBES  PTCLDY    66  39  37 SW6       29.65S
6HR MIN TEMP:  66; 6HR MAX TEMP:  80;

$$




USA.gov is the U.S. government's official web portal to all federal, state and local government web resources and services.